Midland, MI

3:50 AM EDT on July 28, 2017 (GMT -0400)
Barstow

Weather History for KIKW - December, 2013

Change the Weather History Date:

Wednesday, December 4, 2013

  Actual Average (KMBS) Record (KMBS)
Temperature  
Mean Temperature 44 °F -  
Max Temperature 56 °F 37 °F 64 °F (2012)
Min Temperature 33 °F 25 °F 5 °F (2002)
Degree Days  
Heating Degree Days 21    
Moisture  
Dew Point 39 °F    
Average Humidity 99    
Maximum Humidity 100    
Minimum Humidity 92    
Precipitation  
Precipitation 0.00 in - - ()
Sea Level Pressure  
Sea Level Pressure 29.76 in    
Wind  
Wind Speed 7 mph (East)    
Max Wind Speed 17 mph    
Max Gust Speed 23 mph    
Visibility 2 miles    
Events Fog , Rain , Snow    
Averages and records for this station are not official NWS values.
T = Trace of Precipitation, MM = Missing Value Source: NWS Daily Summary

Daily Weather History Graph

Daily Weather History Graph

Search for Another Location

Airport or City:

Trip Planner

Search our weather history database for the weather conditions in past years. The results will help you decide how hot, cold, wet, or windy it might be!

Date:

Astronomy

Dec. 04, 2013 Rise Set
Actual Time 7:54 AM EST 5:00 PM EST
Civil Twilight 7:21 AM EST 5:32 PM EST
Nautical Twilight 6:45 AM EST 6:08 PM EST
Astronomical Twilight 6:11 AM EST 6:43 PM EST
Moon 9:20 AM EST (12/4) 7:11 PM EST (12/4)
Length of Visible Light 10h 11m
Length of Day
9h 06m
Waxing Crescent, 4% of the Moon is Illuminated
Dec 4
Waxing Crescent
Dec 9
First Quarter
Dec 17
Full
Dec 25
Last Quarter
Jan 1
New

Hourly Weather History & Observations

Time (EST) Temp. Windchill Dew Point Humidity Pressure Visibility Wind Dir Wind Speed Gust Speed Precip Events Conditions
12:13 AM 33.4 °F 25.9 °F 32.9 °F 98% 29.87 in 5.0 mi ENE 9.2 mph - N/A   Overcast
12:33 AM 33.4 °F 25.9 °F 32.9 °F 98% 29.85 in 5.0 mi East 9.2 mph - N/A   Overcast
12:52 AM 33.4 °F 25.4 °F 33.1 °F 99% 29.85 in 5.0 mi ENE 10.4 mph - N/A   Overcast
1:13 AM 33.4 °F 25.9 °F 33.1 °F 99% 29.85 in 5.0 mi East 9.2 mph - N/A   Overcast
1:32 AM 33.4 °F 25.9 °F 33.1 °F 99% 29.84 in 4.0 mi ENE 9.2 mph - N/A   Overcast
1:53 AM 33.6 °F 27.5 °F 33.1 °F 98% 29.84 in 4.0 mi ENE 6.9 mph - N/A   Overcast
2:13 AM 33.8 °F 28.6 °F 33.3 °F 98% 29.84 in 4.0 mi ENE 5.8 mph - N/A   Overcast
2:32 AM 33.8 °F 28.6 °F 33.3 °F 98% 29.84 in 3.0 mi ENE 5.8 mph - N/A   Overcast
2:53 AM 33.8 °F 30.8 °F 33.3 °F 98% 29.87 in 2.5 mi NE 3.5 mph - N/A   Overcast
3:12 AM 33.8 °F - 33.3 °F 98% 29.87 in 2.0 mi Calm Calm - N/A   Overcast
3:33 AM 33.8 °F 30.8 °F 33.4 °F 99% 29.86 in 2.0 mi ENE 3.5 mph - N/A   Overcast
3:53 AM 33.8 °F 30.8 °F 33.4 °F 99% 29.87 in 1.5 mi NE 3.5 mph - N/A   Overcast
4:12 AM 33.8 °F 29.6 °F 33.4 °F 99% 29.86 in 1.2 mi NE 4.6 mph - N/A   Overcast
4:33 AM 33.6 °F 29.4 °F 33.4 °F 99% 29.86 in 1.2 mi ENE 4.6 mph - N/A   Overcast
4:53 AM 33.6 °F - 33.6 °F 100% 29.87 in 1.0 mi Calm Calm - N/A   Overcast
5:13 AM 33.4 °F 29.1 °F 33.4 °F 100% 29.86 in 0.8 mi ENE 4.6 mph - N/A Snow Light Snow
5:33 AM 33.4 °F 29.1 °F 33.4 °F 100% 29.85 in 0.5 mi East 4.6 mph - N/A   Overcast
5:53 AM 33.8 °F 30.8 °F 33.8 °F 100% 29.85 in 0.5 mi ENE 3.5 mph - N/A Fog Fog
6:13 AM 33.8 °F 30.8 °F 33.8 °F 100% 29.85 in 0.5 mi East 3.5 mph - N/A Fog Fog
6:33 AM 33.8 °F - 33.8 °F 100% 29.86 in 0.2 mi Calm Calm - N/A Fog Fog
6:52 AM 33.8 °F - 33.8 °F 100% 29.86 in 0.2 mi Calm Calm - N/A Fog Fog
7:13 AM 33.8 °F - 33.8 °F 100% 29.87 in 0.2 mi Calm Calm - N/A Fog Fog
7:33 AM 33.8 °F 29.6 °F 33.8 °F 100% 29.87 in 0.2 mi ENE 4.6 mph - N/A Fog Fog
7:52 AM 33.8 °F 29.6 °F 33.8 °F 100% 29.87 in 0.2 mi ENE 4.6 mph - N/A Fog Fog
8:13 AM 34.0 °F 29.8 °F 34.0 °F 100% 29.87 in 0.2 mi ENE 4.6 mph - N/A Fog Fog
8:16 AM 34.0 °F 29.8 °F 34.0 °F 100% 29.87 in 0.2 mi ENE 4.6 mph - N/A Fog Fog
8:53 AM 34.5 °F 30.4 °F 34.5 °F 100% 29.87 in 0.2 mi ENE 4.6 mph - N/A Fog Fog
9:13 AM 34.9 °F 30.8 °F 34.9 °F 100% 29.87 in 0.2 mi ENE 4.6 mph - N/A Fog Fog
9:32 AM 34.7 °F 29.6 °F 34.7 °F 100% 29.87 in 0.2 mi East 5.8 mph - N/A Fog Fog
9:53 AM 34.9 °F 29.9 °F 34.9 °F 100% 29.87 in 0.2 mi East 5.8 mph - N/A Fog Fog
10:13 AM 34.9 °F 29.9 °F 34.9 °F 100% 29.86 in 0.2 mi ENE 5.8 mph - N/A Fog Fog
10:32 AM 35.1 °F 32.2 °F 35.1 °F 100% 29.87 in 0.8 mi ENE 3.5 mph - N/A   Overcast
10:53 AM 35.6 °F 31.7 °F 35.6 °F 100% 29.87 in 0.8 mi ENE 4.6 mph - N/A   Overcast
11:13 AM 36.1 °F 32.3 °F 36.1 °F 100% 29.85 in 1.0 mi ENE 4.6 mph - N/A   Overcast
11:33 AM 36.7 °F 32.0 °F 36.7 °F 100% 29.84 in 1.2 mi ENE 5.8 mph - N/A   Overcast
11:53 AM 37.0 °F 31.6 °F 37.0 °F 100% 29.82 in 1.2 mi ENE 6.9 mph - N/A   Overcast
12:13 PM 37.6 °F 33.1 °F 37.6 °F 100% 29.81 in 1.2 mi ENE 5.8 mph - N/A   Overcast
12:33 PM 37.9 °F 33.5 °F 37.9 °F 100% 29.80 in 1.5 mi ENE 5.8 mph - N/A   Overcast
12:53 PM 37.8 °F 34.2 °F 37.8 °F 100% 29.79 in 1.5 mi NE 4.6 mph - N/A   Overcast
1:13 PM 38.5 °F 35.0 °F 38.3 °F 99% 29.78 in 1.5 mi ENE 4.6 mph - N/A   Overcast
1:33 PM 38.5 °F 34.1 °F 38.3 °F 99% 29.78 in 1.5 mi ENE 5.8 mph - N/A   Overcast
1:53 PM 38.5 °F 35.0 °F 38.3 °F 99% 29.78 in 1.5 mi East 4.6 mph - N/A   Overcast
2:13 PM 38.5 °F - 38.3 °F 99% 29.77 in 1.5 mi Calm Calm - N/A   Overcast
2:33 PM 38.5 °F 34.1 °F 38.3 °F 99% 29.76 in 1.5 mi ENE 5.8 mph - N/A   Overcast
2:53 PM 38.5 °F 32.7 °F 38.3 °F 99% 29.75 in 1.5 mi ENE 8.1 mph - N/A   Overcast
3:12 PM 38.8 °F 35.4 °F 38.5 °F 99% 29.75 in 1.5 mi NE 4.6 mph - N/A   Overcast
3:33 PM 39.4 °F 36.1 °F 39.2 °F 99% 29.74 in 1.5 mi East 4.6 mph - N/A   Overcast
3:53 PM 39.4 °F 34.5 °F 39.0 °F 99% 29.73 in 1.5 mi East 6.9 mph - N/A   Overcast
4:12 PM 39.4 °F 33.2 °F 39.0 °F 99% 29.72 in 1.2 mi East 9.2 mph - N/A   Overcast
4:33 PM 39.6 °F 34.0 °F 39.2 °F 99% 29.71 in 1.5 mi East 8.1 mph - N/A   Overcast
4:53 PM 40.3 °F 33.9 °F 39.9 °F 99% 29.69 in 2.0 mi East 10.4 mph - N/A   Overcast
5:12 PM 41.0 °F 35.2 °F 40.6 °F 99% 29.68 in 2.5 mi East 9.2 mph - N/A   Overcast
5:33 PM 41.9 °F 35.9 °F 41.2 °F 97% 29.67 in 2.5 mi East 10.4 mph - N/A   Overcast
5:53 PM 42.3 °F 37.3 °F 41.9 °F 99% 29.66 in 3.0 mi East 8.1 mph - N/A   Overcast
6:12 PM 42.4 °F 37.0 °F 41.9 °F 98% 29.65 in 3.0 mi East 9.2 mph - N/A   Overcast
6:33 PM 42.8 °F 38.0 °F 42.3 °F 98% 29.64 in 3.0 mi East 8.1 mph - N/A   Overcast
6:53 PM 43.2 °F 39.7 °F 42.4 °F 97% 29.63 in 3.0 mi East 5.8 mph - N/A Rain Rain
7:12 PM 44.6 °F 39.7 °F 43.7 °F 97% 29.62 in 2.5 mi ESE 9.2 mph - N/A Rain Light Rain
7:33 PM 45.5 °F 40.8 °F 45.0 °F 98% 29.61 in 3.0 mi ESE 9.2 mph - N/A   Overcast
7:53 PM 47.1 °F - 46.6 °F 98% 29.61 in 3.0 mi SE 8.1 mph - N/A   Overcast
8:12 PM 49.1 °F - 48.2 °F 97% 29.61 in 4.0 mi SE 8.1 mph 16.1 mph N/A   Overcast
8:33 PM 49.5 °F - 48.6 °F 97% 29.60 in 4.0 mi SSE 11.5 mph 17.3 mph N/A   Overcast
8:53 PM 49.6 °F - 48.9 °F 97% 29.58 in 3.0 mi SSE 11.5 mph - N/A   Overcast
9:13 PM 50.4 °F - 49.8 °F 98% 29.57 in 3.0 mi SSE 11.5 mph 16.1 mph N/A   Overcast
9:33 PM 50.9 °F - 50.0 °F 97% 29.56 in 3.0 mi SSE 10.4 mph - N/A   Overcast
9:52 PM 51.3 °F - 50.4 °F 97% 29.55 in 3.0 mi SSE 8.1 mph - N/A   Overcast
10:13 PM 51.4 °F - 50.5 °F 97% 29.54 in 3.0 mi SSE 9.2 mph - N/A   Overcast
10:33 PM 51.8 °F - 50.9 °F 97% 29.54 in 3.0 mi SW 9.2 mph - N/A   Overcast
10:52 PM 52.7 °F - 51.8 °F 97% 29.53 in 4.0 mi SSE 8.1 mph 16.1 mph N/A   Overcast
11:13 PM 54.5 °F - 53.1 °F 95% 29.53 in 5.0 mi South 10.4 mph - N/A   Overcast
11:33 PM 55.6 °F - 53.6 °F 93% 29.53 in 5.0 mi South 13.8 mph 18.4 mph N/A   Overcast
11:52 PM 56.3 °F - 54.0 °F 92% 29.53 in 7.0 mi SW 17.3 mph 23.0 mph N/A   Overcast